HVDC transfer

From www.emi.ea.govt.nz provided by the Electricity Authority (New Zealand)
Run at: 20240506231049

Parameters
Date range,21 Apr 2019 - 21 Apr 2019
Time scale,Trading period
Show,Average flow (MW)

Period start,Period end,Trading period,Direction,Energy transfer (GWh),Peak flow (MW),Average flow (MW)
21/04/2019 00:00:00,21/04/2019 00:30:00,1,Northward at Haywards,0.050,100,100
21/04/2019 00:30:00,21/04/2019 01:00:00,2,Northward at Haywards,0.028,56,56
21/04/2019 01:00:00,21/04/2019 01:30:00,3,Northward at Haywards,0.015,30,30
21/04/2019 01:30:00,21/04/2019 02:00:00,4,Southward at Benmore,-0.006,-12,-12
21/04/2019 02:00:00,21/04/2019 02:30:00,5,Southward at Benmore,-0.027,-54,-54
21/04/2019 02:30:00,21/04/2019 03:00:00,6,Southward at Benmore,-0.005,-11,-11
21/04/2019 03:00:00,21/04/2019 03:30:00,7,Southward at Benmore,-0.010,-20,-20
21/04/2019 03:30:00,21/04/2019 04:00:00,8,Southward at Benmore,-0.014,-28,-28
21/04/2019 04:00:00,21/04/2019 04:30:00,9,Southward at Benmore,-0.016,-32,-32
21/04/2019 04:30:00,21/04/2019 05:00:00,10,Northward at Haywards,0.016,31,31
21/04/2019 05:00:00,21/04/2019 05:30:00,11,Northward at Haywards,0.064,128,128
21/04/2019 05:30:00,21/04/2019 06:00:00,12,Northward at Haywards,0.086,172,172
21/04/2019 06:00:00,21/04/2019 06:30:00,13,Northward at Haywards,0.125,249,249
21/04/2019 06:30:00,21/04/2019 07:00:00,14,Northward at Haywards,0.160,319,319
21/04/2019 07:00:00,21/04/2019 07:30:00,15,Northward at Haywards,0.219,437,437
21/04/2019 07:30:00,21/04/2019 08:00:00,16,Northward at Haywards,0.257,513,513
21/04/2019 08:00:00,21/04/2019 08:30:00,17,Northward at Haywards,0.276,552,552
21/04/2019 08:30:00,21/04/2019 09:00:00,18,Northward at Haywards,0.272,543,543
21/04/2019 09:00:00,21/04/2019 09:30:00,19,Northward at Haywards,0.262,524,524
21/04/2019 09:30:00,21/04/2019 10:00:00,20,Northward at Haywards,0.246,492,492
21/04/2019 10:00:00,21/04/2019 10:30:00,21,Northward at Haywards,0.250,500,500
21/04/2019 10:30:00,21/04/2019 11:00:00,22,Northward at Haywards,0.250,499,499
21/04/2019 11:00:00,21/04/2019 11:30:00,23,Northward at Haywards,0.225,450,450
21/04/2019 11:30:00,21/04/2019 12:00:00,24,Northward at Haywards,0.226,452,452
21/04/2019 12:00:00,21/04/2019 12:30:00,25,Northward at Haywards,0.227,453,453
21/04/2019 12:30:00,21/04/2019 13:00:00,26,Northward at Haywards,0.221,441,441
21/04/2019 13:00:00,21/04/2019 13:30:00,27,Northward at Haywards,0.225,449,449
21/04/2019 13:30:00,21/04/2019 14:00:00,28,Northward at Haywards,0.230,460,460
21/04/2019 14:00:00,21/04/2019 14:30:00,29,Northward at Haywards,0.213,425,425
21/04/2019 14:30:00,21/04/2019 15:00:00,30,Northward at Haywards,0.231,462,462
21/04/2019 15:00:00,21/04/2019 15:30:00,31,Northward at Haywards,0.241,482,482
21/04/2019 15:30:00,21/04/2019 16:00:00,32,Northward at Haywards,0.262,523,523
21/04/2019 16:00:00,21/04/2019 16:30:00,33,Northward at Haywards,0.271,541,541
21/04/2019 16:30:00,21/04/2019 17:00:00,34,Northward at Haywards,0.266,531,531
21/04/2019 17:00:00,21/04/2019 17:30:00,35,Northward at Haywards,0.298,595,595
21/04/2019 17:30:00,21/04/2019 18:00:00,36,Northward at Haywards,0.298,596,596
21/04/2019 18:00:00,21/04/2019 18:30:00,37,Northward at Haywards,0.304,608,608
21/04/2019 18:30:00,21/04/2019 19:00:00,38,Northward at Haywards,0.301,602,602
21/04/2019 19:00:00,21/04/2019 19:30:00,39,Northward at Haywards,0.283,566,566
21/04/2019 19:30:00,21/04/2019 20:00:00,40,Northward at Haywards,0.292,583,583
21/04/2019 20:00:00,21/04/2019 20:30:00,41,Northward at Haywards,0.288,575,575
21/04/2019 20:30:00,21/04/2019 21:00:00,42,Northward at Haywards,0.286,571,571
21/04/2019 21:00:00,21/04/2019 21:30:00,43,Northward at Haywards,0.281,562,562
21/04/2019 21:30:00,21/04/2019 22:00:00,44,Northward at Haywards,0.272,543,543
21/04/2019 22:00:00,21/04/2019 22:30:00,45,Northward at Haywards,0.231,461,461
21/04/2019 22:30:00,21/04/2019 23:00:00,46,Northward at Haywards,0.233,465,465
21/04/2019 23:00:00,21/04/2019 23:30:00,47,Northward at Haywards,0.213,425,425
21/04/2019 23:30:00,22/04/2019 00:00:00,48,Northward at Haywards,0.188,375,375
